Regional Weather Roundup
Issued by NWS

Home | Current Version | Previous Version | Text Only | Print | Product List | Glossary On
Versions: 1 2 3 4 5 6 7 8 9 10 11 12 13 14 15 16 17 18 19 20 21 22 23 24 25 26 27 28 29 30 31 32 33 34 35 36 37 38 39 40 41 42 43 44 45 46 47 48 49 50
000
ASUS45 KSLC 240010
RWRUT

UTAH REGIONAL WEATHER ROUNDUP
NATIONAL WEATHER SERVICE SALT LAKE CITY UT
600 PM MDT TUE SEP 23 2014

UTZ001>011-023>025-240100-

NORTHERN UTAH

CITY           SKY/WX    TMP DP  RH WIND       PRES   REMARKS
HILL AFB       SUNNY     80  48  32 N5        30.14S
LOGAN          SUNNY     79  48  33 CALM      30.11F
OGDEN          SUNNY     80  47  31 CALM      30.11S
PROVO AIRPORT  NOT AVBL
SALT LAKE CITY MOSUNNY   82  46  28 E6        30.08F
VERNAL         CLOUDY    76  51  41 E5        30.16S
WENDOVER       SUNNY     81  50  34 E3        30.07F
HEBER CITY     SUNNY     77  45  31 SW6       30.18S
WEST JORDAN    SUNNY     81  46  30 CALM      30.12F

$$

UTZ012>022-026-027-240100-

SOUTHERN UTAH

CITY           SKY/WX    TMP DP  RH WIND       PRES   REMARKS
BRYCE CANYON   SUNNY     70  41  34 SE6       30.32S
CEDAR CITY     SUNNY     79  36  21 CALM      30.17S
MILFORD        MOSUNNY   83  35  18 S10       30.12S
MOAB/CYNLANDS  SUNNY     83  39  21 NW9       30.09S
PRICE          SUNNY     79  42  26 S8        30.19S
ST GEORGE      CLEAR     93  43  17 NW3       30.00F
KANAB            N/A     82  36  18 S8        30.16F

$$

REGIONAL REPORTS     COLORADO/ARIZONA

CITY           SKY/WX    TMP DP  RH WIND       PRES   REMARKS
CRAIG, CO      MOSUNNY   72  46  39 W3        30.22S
GRAND JUNCTION SUNNY     79  44  28 NW13      30.12S
RIFLE          MOSUNNY   75  46  35 W5        30.17R
MONTROSE       SUNNY     77  45  32 NW6       30.21S
CORTEZ         SUNNY     78  36  21 W7        30.20F
PAGE, AZ       SUNNY     87  36  16 CALM      30.08F
GRAND CANYON   SUNNY     77  24  14 SW5       30.26F
KINGMAN        SUNNY     90  28  11 CALM      30.03F
FLAGSTAFF      SUNNY     74  39  28 SW10      30.29S

$$

REGIONAL REPORTS    NEVADA/IDAHO/WYOMING

CITY           SKY/WX    TMP DP  RH WIND       PRES   REMARKS
LAS VEGAS, NV  SUNNY     96  33  11 VRB6      29.89F HX  91
ELY            SUNNY     78  30  17 SW8       30.19F
ELKO           MOSUNNY   81  36  19 SW7       30.06F
POCATELLO, ID  MOSUNNY   77  46  33 CALM      30.10S
BURLEY         MOSUNNY   81  52  36 NE9       30.02F
EVANSTON, WY   MOSUNNY   70  40  33 W13       30.29S
ROCK SPRINGS   SUNNY     71  40  32 W14G25    30.24S

$$


USA.gov is the U.S. government's official web portal to all federal, state and local government web resources and services.